FW4672 Weather Reports


Display with metric or nautical units.
time (UTC)temp
F
wind
direction
speed
MPH
gust
MPH
rain 1hr
in
rain 24hr
in
rain mn
in
humidity
%
barometer
mb
20260903174429 72 329 0.0 0.0 0.00 0.00 0.00 76 1033.4
20260903172531 71 327 0.0 0.0 0.00 0.00 0.00 76 1033.2
20260903171629 70 330 0.0 0.0 0.00 0.00 0.00 78 1033.4
20260903170728 70 336 0.0 0.0 0.00 0.00 0.00 78 1033.2
20260903165729 70 336 0.0 0.0 0.00 0.00 0.00 77 1033.4
20260903164730 69 323 0.0 0.0 0.00 0.00 0.00 79 1033.3
20260903163728 69 331 0.0 0.0 0.00 0.00 0.00 79 1033.4
20260903162728 69 334 0.0 0.0 0.00 0.00 0.00 79 1033.5
20260903161730 69 297 0.0 0.0 0.00 0.00 0.00 79 1033.4
20260903160728 69 184 0.0 0.0 0.00 0.00 0.00 79 1033.4
20260903155730 68 360 0.0 0.0 0.00 0.00 0.00 79 1033.6
20260903154829 68 180 0.0 0.0 0.00 0.00 0.00 79 1033.5
20260903153829 67 180 0.0 0.0 0.00 0.00 0.00 79 1033.6
20260903152827 67 180 0.0 0.0 0.00 0.00 0.00 79 1033.6
20260903151829 67 180 0.0 0.0 0.00 0.00 0.00 80 1033.6
20260903143828 64 180 0.0 0.0 0.00 0.00 0.00 84 1033.6
20260903141828 63 180 0.0 0.0 0.00 0.00 0.00 85 1033.5
20260903140829 63 180 0.0 0.0 0.00 0.00 0.00 85 1033.3
20260903135831 62 180 0.0 0.0 0.00 0.00 0.00 86 1033.1
20260903134829 62 180 0.0 0.0 0.00 0.00 0.00 88 1033.0
20260903133829 62 180 0.0 0.0 0.00 0.00 0.00 88 1033.1
20260903132828 62 180 0.0 0.0 0.00 0.00 0.00 89 1033.0
20260903131829 61 180 0.0 0.0 0.00 0.00 0.00 88 1032.9
20260903130830 61 180 0.0 0.0 0.00 0.00 0.00 89 1032.8
20260903124828 61 180 0.0 0.0 0.00 0.00 0.00 89 1032.9
20260903123927 61 180 0.0 0.0 0.00 0.00 0.00 89 1032.8
20260903122027 61 180 0.0 0.0 0.00 0.00 0.00 90 1032.9
20260903121029 62 180 0.0 0.0 0.00 0.00 0.00 90 1032.9
20260903115029 62 180 0.0 0.0 0.00 0.00 0.00 90 1032.8
20260903114031 62 180 0.0 0.0 0.00 0.00 0.00 89 1033.0
20260903112029 63 180 0.0 0.0 0.00 0.00 0.00 89 1032.9
20260903111029 63 180 0.0 0.0 0.00 0.00 0.00 89 1032.9
20260903110028 63 180 0.0 0.0 0.00 0.00 0.00 88 1032.8
20260903105127 63 180 0.0 0.0 0.00 0.00 0.00 88 1032.9
20260903104130 63 180 0.0 0.0 0.00 0.00 0.00 88 1033.0
20260903103129 63 180 0.0 0.0 0.00 0.00 0.00 87 1033.0
20260903102127 63 180 0.0 0.0 0.00 0.00 0.00 89 1033.0
20260903101128 63 180 0.0 0.0 0.00 0.00 0.00 89 1033.3
20260903100128 63 180 0.0 0.0 0.00 0.00 0.00 89 1033.3
20260903095129 63 180 0.0 0.0 0.00 0.00 0.00 88 1033.4
20260903094129 63 45 0.0 0.0 0.00 0.00 0.00 89 1033.4
20260903092227 64 59 0.0 0.0 0.00 0.00 0.00 89 1033.6
20260903091229 64 67 0.0 0.0 0.00 0.00 0.00 89 1033.7
20260903090229 64 63 0.0 0.0 0.00 0.00 0.00 88 1033.5
20260903085229 64 62 0.0 0.0 0.00 0.00 0.00 88 1033.6
20260903084327 64 67 0.0 0.0 0.00 0.00 0.00 88 1033.7
20260903083427 64 67 0.0 0.0 0.00 0.00 0.00 88 1033.7
20260903082430 64 67 0.0 0.0 0.00 0.00 0.00 89 1033.8
20260903081428 64 67 0.0 0.0 0.00 0.00 0.00 89 1033.8
20260903080427 64 65 0.0 0.0 0.00 0.00 0.00 89 1033.7
20260903075430 64 65 0.0 0.0 0.00 0.00 0.00 89 1033.8
20260903074429 64 67 0.0 0.0 0.00 0.00 0.00 89 1034.1
20260903072528 65 67 0.0 0.0 0.00 0.00 0.00 88 1033.9
20260903071528 65 67 0.0 0.0 0.00 0.00 0.00 88 1034.0
20260903070528 65 67 0.0 0.0 0.00 0.00 0.00 88 1033.9
20260903065535 65 67 0.0 0.0 0.00 0.00 0.00 88 1034.0
20260903063535 66 67 0.0 0.0 0.00 0.00 0.00 87 1033.8
20260903061537 66 67 0.0 0.0 0.00 0.00 0.00 87 1034.0
20260903060534 66 66 0.0 0.0 0.00 0.00 0.00 87 1034.0
20260903055537 66 65 0.0 0.0 0.00 0.00 0.00 87 1033.9
20260903054536 66 67 0.0 0.0 0.00 0.00 0.00 87 1034.1
20260903053636 66 67 0.0 0.0 0.00 0.00 0.00 86 1034.1
20260903052635 66 22 0.0 0.0 0.00 0.00 0.00 86 1034.1
20260903051636 66 22 0.0 0.0 0.00 0.00 0.00 86 1034.2
20260903050735 66 22 0.0 0.0 0.00 0.00 0.00 85 1034.2
20260903045735 66 22 0.0 0.0 0.00 0.00 0.00 84 1034.1
20260903044735 66 22 0.0 0.0 0.00 0.00 0.00 83 1034.2
20260903043834 67 22 0.0 0.0 0.00 0.00 0.00 82 1034.0
20260903042837 67 22 0.0 0.0 0.00 0.00 0.00 83 1034.1
20260903041935 68 22 0.0 0.0 0.00 0.00 0.00 83 1034.0
20260903040935 68 22 0.0 0.0 0.00 0.00 0.00 83 1033.9
20260903040035 68 22 0.0 0.0 0.00 0.00 0.00 83 1033.8
20260903034037 67 292 0.0 0.0 0.00 0.00 0.00 84 1033.6
20260903033036 67 292 0.0 0.0 0.00 0.00 0.00 83 1033.5
20260903032036 68 292 0.0 0.0 0.00 0.00 0.00 83 1033.4
20260903031134 68 292 0.0 0.0 0.00 0.00 0.00 82 1033.2
20260903025135 69 292 0.0 0.0 0.00 0.00 0.00 81 1033.1
20260903024136 69 180 0.0 0.0 0.00 0.00 0.00 80 1033.0
20260903023135 69 180 0.0 0.0 0.00 0.00 0.00 78 1033.2
20260903023035 70 180 0.0 0.0 0.00 0.00 0.00 78 1033.0
20260903022034 70 180 0.0 0.0 0.00 0.00 0.00 78 1033.1
20260903021036 70 180 0.0 0.0 0.00 0.00 0.00 77 1033.1
20260903020036 71 228 0.0 0.0 0.00 0.00 0.00 75 1033.0
20260903012134 74 205 0.0 0.0 0.00 0.00 0.00 70 1032.8
20260903010136 74 180 0.0 0.0 0.00 0.00 0.00 69 1032.8
20260903005134 75 178 0.0 0.0 0.00 0.00 0.00 67 1032.8
20260903003134 75 189 0.0 0.0 0.00 0.00 0.00 67 1032.8
20260903002135 75 242 0.0 0.0 0.00 0.00 0.00 66 1032.8
20260903001137 76 186 0.0 0.0 0.00 0.00 0.00 65 1032.9
20260902235134 77 198 0.0 0.0 0.00 0.00 0.00 65 1032.9
20260902233135 76 256 0.0 0.0 0.00 0.00 0.00 67 1033.0
20260902232234 76 194 0.0 0.0 0.00 0.00 0.00 69 1033.1
20260902231236 76 180 0.0 0.0 0.00 0.00 0.00 69 1033.1
20260902230234 76 201 0.0 0.0 0.00 0.00 0.00 70 1033.3
20260902225236 76 186 0.0 0.0 0.00 0.00 0.00 69 1033.3
20260902224234 76 180 0.0 0.0 0.00 0.00 0.00 69 1033.4
20260902223334 76 201 0.0 0.0 0.00 0.00 0.00 68 1033.6
20260902221434 75 182 0.0 0.0 0.00 0.00 0.00 70 1033.7
20260902220437 75 186 0.0 0.0 0.00 0.00 0.00 70 1033.7
20260902213435 76 194 0.0 0.0 0.00 0.00 0.00 71 1033.7
20260902212436 76 191 0.0 0.0 0.00 0.00 0.00 72 1034.0
20260902211450 76 180 0.0 0.0 0.00 0.00 0.00 73 1034.1
20260902210537 76 180 0.0 0.0 0.00 0.00 0.00 73 1034.1
20260902205635 76 184 0.0 0.0 0.00 0.00 0.00 75 1034.0
20260902204635 76 183 0.0 0.0 0.00 0.00 0.00 76 1034.1
20260902203637 75 337 0.0 0.0 0.00 0.00 0.00 76 1034.1
20260902202636 75 337 0.0 0.0 0.00 0.00 0.00 79 1034.2
20260902201734 75 336 0.0 0.0 0.00 0.00 0.00 76 1034.2
20260902200736 76 331 0.0 0.0 0.00 0.00 0.00 77 1034.3
20260902195735 75 336 0.0 0.0 0.00 0.00 0.00 77 1034.6
20260902194737 76 331 0.0 0.0 0.00 0.00 0.00 77 1034.3
20260902193836 76 336 0.0 0.0 0.00 0.00 0.00 77 1034.5
20260902192836 76 333 0.0 0.0 0.00 0.00 0.00 75 1034.8
20260902191934 75 333 0.0 0.0 0.00 0.00 0.00 75 1034.8
20260902190943 75 337 0.0 0.0 0.00 0.00 0.00 74 1034.8
20260902190039 71 313 0.0 0.0 0.00 0.00 0.00 79 1035.2
20260902185135 68 180 0.0 0.0 0.00 0.00 0.00 83 1034.9
20260902184217 67 180 0.0 0.0 0.00 0.00 0.00 85 1035.0
20260902183206 67 180 0.0 0.0 0.00 0.00 0.00 86 1035.0
20260902181041 65 180 0.0 0.0 0.00 0.00 0.00 89 1034.9
20260902175827 65 180 0.0 0.0 0.00 0.00 0.00 90 1034.9
20260902174855 64 180 0.0 0.0 0.00 0.00 0.00 89 1035.1